Location: San Pelegr�n
(42.1868°N, 0.0079°E)
Time: 15:22:41
(UTC+00:00)

USA 267 - Pass Details

Date: 24 January 2020
Orbit: 1101 x 1107 km, 123.0° (Epoch: 22 February)

Event Time Altitude Azimuth Distance (km) Brightness Sun altitude
Exits shadow 18:30:18 12° 37° (NE) 2,783 4.9 -16.1°
Maximum altitude 18:35:27 34° 339° (NNW) 1,747 4.4 -17.0°
Drops below altitude 10° 18:41:10 10° 278° (W) 2,962 6.6 -18.0°
Sets 18:43:53 0° 269° (W) 3,919 7.8 -18.5°
